Location: ?????
(31.8092°N, 35.2590°E)
Time: 20:31:37
(UTC+00:00)

Lacrosse 5 - Pass Details

Date: 20 June 2021
Orbit: 715 x 724 km, 57.0° (Epoch: 21 July)

Event Time Altitude Azimuth Distance (km) Brightness Sun altitude
Rises 19:23:51 0° 302° (WNW) 3,119 6.2 -25.8°
Reaches altitude 10° 19:26:55 10° 284° (WNW) 2,197 5.0 -26.2°
Maximum altitude 19:30:15 18° 242° (WSW) 1,724 3.9 -26.6°
Enters shadow 19:30:39 18° 236° (WSW) 1,732 3.8 -26.6°
